FALCON 9 R/B, 62853

Orbit data source: Space-Track

FALCON 9 R/B, 62853 is space debris in HEO originally from a launch on Thu, 30 Jan 2025 UTC launched from the Air Force Eastern Test Range (AFETR). Debris objects in space refer to the collection of defunct objects orbiting the Earth. Examples of debris include non-operational satellites, rocket bodies, and fragments generated from explosions, collisions, or faulty payload assembly.

Loading next visibility...
Identifier
62853, 2025-021B
Orbit
HEO
Country
Flag of USUS
Related business
Manufacturer
SpaceX
Mission
Spacecraft
Bus & Motor
F9ST2, Unknown motor
Mass
~4,000 kg wet, ~4,000 kg dry
Launch date (UTC)
2025-01-30 (2 years ago)
Launch vehicle
Unknown
Launch site
Air Force Eastern Test Range (AFETR)
Object type
Payload
Rocket body
Debris
Shape & HBR
Cyl, 8.0 m
Radar Cross Section
39.980 m², Large (>1 m²)

Expand to show TLE details & history
Last TLE update: 19 hours ago

TLE from 19 hours ago
0 FALCON 9 R/B
1 62853U 25021B   26256.08820273 -.00000144  00000-0  95935-3 0  9999
2 62853  24.3777 246.7061 8273052 341.2799   0.5996  1.11110003  6568
Epoch: 2026-09-13T02:07Z
TLE epoch observation values (Epoch: 2026-09-13T02:07:00.715Z)
Latitude
0.00017°
Longitude
-137.13126°
Altitude
635.27 km
Speed
10.175 km/s
True Right ascension
16h 26m 50s
True Declination
0° 00' 01"
Sunlit
Object was in daylight at epoch
Visualization orbit readout
Latitude
Unknown
Longitude
Unknown
Altitude
Unknown
Speed
Unknown
Apparent Right ascension
Unknown
Apparent Declination
Unknown
Sunlit
N/A
Visualization observer readout
Local Sidereal Time
13:55:29
Azimuth
Unknown
Elevation
Unknown
Doppler factor
Unknown
Orbital elements
Apogee altitude
65,582.704 km
Perigee altitude
422.732 km
Semi-major axis
39,380.855 km
Eccentricity
0.82731
Inclination
24.3777°
RAAN
246.7061°
Arg. of periapsis
341.2799°
True anomaly
11.22854°
Mean anomaly
0.5996°
Eccentric anomaly
3.46193°
Mean motion
0.27773 °/min
Orbital period
1,296.24 mins
BSTAR
0.00095935
Loading maneuver chart data...
Computing Atmospheric mass density...
Loading historical data...
Loading historical data...
Loading historical data...
Loading historical data...
Loading historical data...
Loading historical data...
Loading historical data...
Other satellites on launch #21 in the year 2025 (2025-01-30 UTC)

Documentation

Showing up to 5 results
|